Regional Weather Roundup
Issued by NWS

Home | Current Version | Previous Version | Graphics & Text | Print | Product List | Glossary On
Versions: 1 2 3 4 5 6 7 8 9 10 11 12 13 14 15 16 17 18 19 20 21 22 23 24 25 26 27 28 29 30 31 32 33 34 35 36 37 38 39 40 41 42 43 44 45 46 47 48 49 50
108
ASUS43 KMPX 271310
RWRMN
WEATHER ROUNDUP FOR MINNESOTA
NATIONAL WEATHER SERVICE TWIN CITIES/CHANHASSEN MN
800 AM CDT FRI MAY 27 2016


NOTE: "FAIR" INDICATES FEW OR NO CLOUDS BELOW 12,000 FEET WITH NO
SIGNIFICANT WEATHER AND/OR OBSTRUCTIONS TO VISIBILITY. N/A MEANS
CURRENT SKY AND/OR WEATHER CONDITIONS ARE NOT AVAILABLE.

MNZ060>063-068>070-271400-
   Twin Cities Metro

CITY           SKY/WX    TMP DP  RH WIND       PRES   REMARKS
TWIN CITIES    CLOUDY    66  58  75 SE8       29.80R
ST PAUL        CLOUDY    67  58  72 SE8       29.81R
CRYSTAL        LGT RAIN  66  56  70 S12G24    29.79R
BLAINE         LGT RAIN  66  59  77 SE9       29.81R
EDEN PRAIRIE   LGT RAIN  66  57  72 S7        29.78R
SOUTH ST PAUL  CLOUDY    67  58  72 SE6       29.81R
LAKE ELMO      CLOUDY    64  59  82 SE5       29.84R
$$
MNZ001>005-007-008-013>017-022>024-027-028-271400-
   Northwest Minnesota

CITY           SKY/WX    TMP DP  RH WIND       PRES   REMARKS
BEMIDJI        MOSUNNY   60  53  77 E6        29.80F
HALLOCK        PTSUNNY   54  54 100 W3        29.79S FOG
ROSEAU         HAZE      55  50  82 CALM      29.80S VSB 1/4
WARROAD        FOG       54  50  87 CALM      29.81S VSB<1/4
THIEF RVR FALL SUNNY     61  54  77 CALM      29.81F
CROOKSTON      SUNNY     59  55  88 CALM      29.80S
FOSSTON        MOSUNNY   61  57  88 CALM      29.80S
DETROIT LAKES  SUNNY     61  54  77 E3        29.79S
MOORHEAD       MOSUNNY   61  55  82 N5        29.77S
PARK RAPIDS    CLOUDY    60  52  74 NE6       29.79F
MAHNOMEN       FAIR      61  55  82 E3        29.78S
$$
MNZ006-009>011-018-025>026-271400-
   North Central Minnesota

CITY           SKY/WX    TMP DP  RH WIND       PRES   REMARKS
BAUDETTE       MOSUNNY   58  53  84 CALM      29.82R
FLAG ISLAND    SUNNY     57  54  88 CALM      29.79S
INTL FALLS     MOSUNNY   58  53  84 CALM      29.82S
WASKISH        SUNNY     63  55  77 CALM      29.81R
BIG FORK       CLOUDY    59  54  82 CALM      29.83F
LONGVILLE      CLOUDY    57  55  94 CALM      29.81S
GRAND RAPIDS   CLOUDY    58  52  80 CALM      29.84F
CRANE LAKE     SUNNY     54  54 100 CALM      29.86F
ORR            MOSUNNY   57  52  82 CALM      29.82S
COOK           MOSUNNY   55  52  88 CALM      29.85F
WALKER         PTSUNNY   59  54  82 NE5       29.81S
$$
MNZ012-019>021-037-271400-
   Northeast Minnesota

CITY           SKY/WX    TMP DP  RH WIND       PRES   REMARKS
DULUTH         CLOUDY    58  52  80 SE8       29.85R
ELY            MOSUNNY   59  54  82 CALM      29.86S
HIBBING        CLOUDY    55  52  89 CALM      29.84S
EVELETH        MOSUNNY   55  55 100 N3        29.85S
DULUTH HARBOR  FOG       45  43  93 E8        29.87S VSB 3/4
TWO HARBORS    CLOUDY    57  54  88 CALM      29.85R
SILVER BAY     CLOUDY    55  54  94 CALM      29.85S
GRAND MARAIS     N/A     42  41  96 CALM      29.91R
G MARAIS ARPRT MOSUNNY   57  52  82 CALM      29.90R
$$
MNZ029>031-032-039>041-046>048-054>057-064-271400-
   West Central Minnesota

CITY           SKY/WX    TMP DP  RH WIND       PRES   REMARKS
FERGUS FALLS   PTSUNNY   64  54  68 E9        29.74S
WHEATON        MOSUNNY   66  55  68 NE7       29.76S
MORRIS         PTSUNNY   64  54  68 SE5       29.74R
ALEXANDRIA     CLOUDY    63  51  65 NE8       29.76S
ELBOW LAKE     FAIR      63  54  71 E10       29.76S
WADENA         PTSUNNY   55  52  88 N5        29.78R
GLENWOOD       CLOUDY    63  55  77 E9        29.76R
APPLETON       CLOUDY    64  52  63 N3        29.73S
ORTONVILLE     CLOUDY    61  52  72 N5        29.74S
MADISON        CLOUDY    61  55  82 N7        29.73F
WILLMAR        FAIR      64  61  88 SE8       29.76S
$$
MNZ033>034-036-042>043-049>051-058-059-271400-
   Central Minnesota

CITY           SKY/WX    TMP DP  RH WIND       PRES   REMARKS
ST CLOUD       CLOUDY    64  57  78 E6        29.78R
SAUK CENTRE    PTSUNNY   63  56  78 E6        29.78R
PAYNESVILLE    MOSUNNY   65  57  76 SE12      29.77R
AITKIN         CLOUDY    61  50  67 E3        29.79R
PINE RIVER     CLOUDY    57  54  88 CALM      29.83F
BRAINERD       CLOUDY    60  54  80 N5        29.79S
STAPLES        CLOUDY    57  50  77 N5        29.78S
LITTLE FALLS   CLOUDY    63  54  72 SE8       29.78R
LITCHFIELD     LGT RAIN  64  61  88 SE5       29.77S
BUFFALO        CLOUDY    65  55  70 SE8       29.80R
MAPLE LAKE     CLOUDY    66  58  76 S3        29.79R
HUTCHINSON     SUNNY     64  59  83 S3        29.78S
$$
MNZ037-044-045-052-053-271400-
   East Central Minnesota

CITY           SKY/WX    TMP DP  RH WIND       PRES   REMARKS
PRINCETON      CLOUDY    66  57  72 E7        29.80R
MORA           CLOUDY    59  54  82 W3        29.82S
CAMBRIDGE      CLOUDY    68  55  64 SE5       29.79R
RUSH CITY      CLOUDY    64  56  73 SE7       29.81R
MOOSE LAKE     CLOUDY    52  48  87 CALM      29.82R
HINCKLEY       LGT RAIN  59  55  88 CALM      29.83R
CLOQUET        CLOUDY    54  50  87 E3        29.84S
MCGREGOR       CLOUDY    59  52  77 E5        29.81S
$$
MNZ071>073-080-081-089-090-097-098-271400-
   Southwest Minnesota

CITY           SKY/WX    TMP DP  RH WIND       PRES   REMARKS
MONTEVIDEO     CLOUDY    66  55  68 CALM      29.75S
GRANITE FALLS  PTSUNNY   67  59  73 SE7       29.75S
CANBY          CLOUDY    65  60  85 W3        29.75R
MARSHALL       CLOUDY    65  56  72 SE3       29.75S
REDWOOD FALLS  MOSUNNY   66  57  72 S6        29.74F
OLIVIA         MOSUNNY   59  52  77 S8        29.75S
PIPESTONE      CLOUDY    63  55  77 S3        29.75R
WINDOM         CLOUDY    66  55  68 CALM      29.77S
WORTHINGTON    CLOUDY    62  58  86 SE8       29.78S
JACKSON        CLOUDY    63  55  77 SE6       29.78R
TRACY          MOSUNNY   65  58  78 S9        29.76R
SLAYTON        PTSUNNY   64  57  79 SE13      29.77R
$$
MNZ065>067-074>077-082>085-091>093-271400-
   South Central Minnesota

CITY           SKY/WX    TMP DP  RH WIND       PRES   REMARKS
MANKATO        CLOUDY    64  55  72 SE15      29.78S
NEW ULM        CLOUDY    63  57  82 SE8       29.77S
ST JAMES       CLOUDY    59  54  82 SE6       29.78F
FAIRMONT       CLOUDY    64  54  68 SE16      29.76F
GLENCOE        CLOUDY    66  60  81 SE7       29.78R
FARIBAULT      CLOUDY    64  57  77 SE3       29.81S
OWATONNA       CLOUDY    66  55  68 SE7       29.81S
WASECA         CLOUDY    63  55  77 SE9       29.81S
ALBERT LEA     CLOUDY    66  57  72 SE12      29.80F
$$
MNZ078>079-086>088-094>096-271400-
   Southeast Minnesota

CITY           SKY/WX    TMP DP  RH WIND       PRES   REMARKS
ROCHESTER      CLOUDY    63  60  90 SE6       29.85S
RED WING       CLOUDY    64  61  88 SE13      29.84R
STANTON        CLOUDY    67  56  66 SE9       29.80S
DODGE CENTER   CLOUDY    64  57  77 SE9       29.83S
WINONA         LGT RAIN  63  61  94 E3        29.87R
AUSTIN         DRIZZLE   63  57  82 SE9G16    29.83R
PRESTON        LGT RAIN  61  58  89 CALM      29.85S
$$
ABBREVIATIONS USED IN REMARKS
   TC - TEMPERATURES IN CELSIUS
  WCI - WIND CHILL INDEX
   HX - HEAT INDEX
  VSB - VISIBILITY
$$




USA.gov is the U.S. government's official web portal to all federal, state and local government web resources and services.